AEE368 LGAV-LGSR

Flight info

Callsign AEE368
Flight time 0h 30m
Altitude 17000
Route KEA UL607 NETIS UM601 PEXAN
Aircraft A320/M-SDE2GHIJ1RTWY/SB1

Departure

Time 2026-04-26 11:27
Airport Athens Eleftherios Venizelos International Airport (LGAV)

Arrival

Time 2026-04-26 11:58
Airport Santorini International Airport (LGSR)
Time Latitude Longitude Altitude Speed Heading
2026-04-26 11:18 37.93656 23.94876 303 ft 0 kts 307°
2026-04-26 11:20 37.93645 23.94895 301 ft 4 kts 307°
2026-04-26 11:20 37.93630 23.94919 301 ft 1 kts 307°
2026-04-26 11:21 37.93618 23.94944 301 ft 4 kts 284°
2026-04-26 11:21 37.93619 23.94974 300 ft 4 kts 234°
2026-04-26 11:21 37.93626 23.94986 300 ft 0 kts 217°
2026-04-26 11:23 37.93612 23.94971 300 ft 7 kts 217°
2026-04-26 11:24 37.93552 23.94914 301 ft 15 kts 217°
2026-04-26 11:24 37.93450 23.94864 301 ft 18 kts 149°
2026-04-26 11:24 37.93370 23.94992 299 ft 17 kts 160°
2026-04-26 11:24 37.93266 23.94917 301 ft 19 kts 216°
2026-04-26 11:25 37.93158 23.94855 299 ft 15 kts 155°
2026-04-26 11:25 37.93136 23.94894 301 ft 0 kts 114°
2026-04-26 11:25 37.93136 23.94895 297 ft 1 kts 114°
2026-04-26 11:25 37.93139 23.94930 300 ft 8 kts 71°
2026-04-26 11:26 37.93169 23.95038 297 ft 18 kts 71°
2026-04-26 11:26 37.93260 23.95189 293 ft 32 kts 38°
2026-04-26 11:26 37.93634 23.95545 283 ft 100 kts 37°
2026-04-26 11:26 37.94333 23.96205 292 ft 148 kts 37°
2026-04-26 11:27 37.95193 23.97039 726 ft 155 kts 38°
2026-04-26 11:27 37.96037 23.97856 1383 ft 154 kts 38°
2026-04-26 11:27 37.96891 23.98674 2039 ft 155 kts 38°
2026-04-26 11:27 37.97803 23.99547 2460 ft 176 kts 37°
2026-04-26 11:28 37.98839 24.00537 2854 ft 197 kts 36°
2026-04-26 11:28 38.00001 24.01647 3210 ft 221 kts 33°
2026-04-26 11:28 38.01283 24.02869 3784 ft 236 kts 34°
2026-04-26 11:28 38.02613 24.04143 4572 ft 242 kts 35°
2026-04-26 11:29 38.03973 24.05453 5388 ft 248 kts 35°
2026-04-26 11:29 38.05351 24.06786 5917 ft 256 kts 36°
2026-04-26 11:29 38.06777 24.08164 6754 ft 259 kts 37°
2026-04-26 11:29 38.08018 24.09846 7577 ft 266 kts 57°
2026-04-26 11:30 38.08691 24.12046 8373 ft 272 kts 79°
2026-04-26 11:30 38.08798 24.13662 8710 ft 284 kts 93°
2026-04-26 11:30 38.08034 24.16930 9621 ft 294 kts 119°
2026-04-26 11:30 38.06809 24.19037 10256 ft 305 kts 135°
2026-04-26 11:31 38.05056 24.20699 10479 ft 328 kts 153°
2026-04-26 11:31 38.02826 24.21640 10653 ft 350 kts 171°
2026-04-26 11:31 38.00375 24.22043 11162 ft 359 kts 173°
2026-04-26 11:31 37.97917 24.22456 11806 ft 363 kts 172°
2026-04-26 11:32 37.95404 24.22896 12491 ft 366 kts 172°
2026-04-26 11:32 37.92874 24.23348 13159 ft 369 kts 171°
2026-04-26 11:32 37.90320 24.23804 13763 ft 373 kts 171°
2026-04-26 11:32 37.87734 24.24265 14347 ft 377 kts 171°
2026-04-26 11:33 37.85119 24.24728 14916 ft 381 kts 171°
2026-04-26 11:33 37.82475 24.25194 15455 ft 386 kts 171°
2026-04-26 11:33 37.79804 24.25662 15992 ft 389 kts 171°
2026-04-26 11:33 37.77151 24.26127 16496 ft 393 kts 171°
2026-04-26 11:34 37.74428 24.26607 16907 ft 397 kts 171°
2026-04-26 11:34 37.71683 24.27089 17019 ft 403 kts 171°
2026-04-26 11:34 37.68843 24.27589 17028 ft 421 kts 171°
2026-04-26 11:34 37.65884 24.28110 17026 ft 436 kts 171°
2026-04-26 11:35 37.62858 24.28637 17026 ft 441 kts 171°
2026-04-26 11:35 37.59814 24.29162 17037 ft 442 kts 171°
2026-04-26 11:35 37.56815 24.29982 17024 ft 440 kts 161°
2026-04-26 11:35 37.54007 24.31368 17028 ft 439 kts 152°
2026-04-26 11:36 37.51371 24.33287 17026 ft 437 kts 146°
2026-04-26 11:36 37.48799 24.35320 17038 ft 437 kts 146°
2026-04-26 11:36 37.46218 24.37349 17024 ft 437 kts 146°
2026-04-26 11:36 37.43636 24.39373 17028 ft 437 kts 146°
2026-04-26 11:37 37.41056 24.41396 17024 ft 437 kts 146°
2026-04-26 11:37 37.38480 24.43417 17037 ft 436 kts 146°
2026-04-26 11:37 37.35902 24.45435 17036 ft 436 kts 146°
2026-04-26 11:37 37.33325 24.47449 17028 ft 436 kts 146°
2026-04-26 11:38 37.30750 24.49462 17025 ft 436 kts 146°
2026-04-26 11:38 37.28175 24.51472 17020 ft 436 kts 146°
2026-04-26 11:38 37.25636 24.53452 17016 ft 435 kts 146°
2026-04-26 11:38 37.23065 24.55461 17012 ft 435 kts 146°
2026-04-26 11:39 37.20501 24.57465 17010 ft 435 kts 146°
2026-04-26 11:39 37.17933 24.59472 17007 ft 435 kts 146°
2026-04-26 11:39 37.15365 24.61476 17005 ft 435 kts 146°
2026-04-26 11:39 37.12797 24.63476 17003 ft 435 kts 146°
2026-04-26 11:40 37.10227 24.65472 17002 ft 434 kts 146°
2026-04-26 11:40 37.07659 24.67466 17015 ft 434 kts 146°
2026-04-26 11:40 37.05087 24.69458 17013 ft 434 kts 146°
2026-04-26 11:40 37.02557 24.71414 17009 ft 434 kts 146°
2026-04-26 11:41 36.99987 24.73398 17006 ft 434 kts 146°
2026-04-26 11:42 36.82060 24.87269 17007 ft 434 kts 146°
2026-04-26 11:43 36.79495 24.89248 17003 ft 433 kts 146°
2026-04-26 11:43 36.76938 24.91219 17005 ft 433 kts 146°
2026-04-26 11:43 36.74522 24.93428 17000 ft 429 kts 136°
2026-04-26 11:43 36.72491 24.96135 16996 ft 426 kts 125°
2026-04-26 11:44 36.70916 24.99242 16994 ft 423 kts 114°
2026-04-26 11:44 36.69839 25.02581 16801 ft 405 kts 104°
2026-04-26 11:44 36.69280 25.05941 16538 ft 389 kts 96°
2026-04-26 11:44 36.68942 25.09242 16014 ft 382 kts 96°
2026-04-26 11:45 36.68598 25.12469 15420 ft 379 kts 98°
2026-04-26 11:45 36.67916 25.15628 14821 ft 377 kts 109°
2026-04-26 11:45 36.66724 25.18536 14178 ft 377 kts 121°
2026-04-26 11:45 36.65076 25.21064 13552 ft 376 kts 133°
2026-04-26 11:46 36.63120 25.23200 12917 ft 373 kts 137°
2026-04-26 11:46 36.61150 25.25285 12272 ft 370 kts 137°
2026-04-26 11:46 36.59202 25.27352 11609 ft 366 kts 137°
2026-04-26 11:46 36.57273 25.29401 10973 ft 363 kts 137°
2026-04-26 11:47 36.55417 25.31373 10801 ft 347 kts 137°
2026-04-26 11:47 36.53738 25.33478 10165 ft 343 kts 121°
2026-04-26 11:47 36.52807 25.36105 10026 ft 325 kts 106°
2026-04-26 11:47 36.52146 25.38725 9898 ft 312 kts 105°
2026-04-26 11:48 36.51521 25.41255 9769 ft 301 kts 105°
2026-04-26 11:48 36.50916 25.43692 9656 ft 290 kts 105°
2026-04-26 11:48 36.50331 25.46042 9519 ft 281 kts 105°
2026-04-26 11:48 36.49752 25.48356 9192 ft 280 kts 105°
2026-04-26 11:49 36.49171 25.50664 8812 ft 280 kts 105°
2026-04-26 11:49 36.48591 25.52944 8407 ft 281 kts 105°
2026-04-26 11:49 36.47997 25.55275 7967 ft 284 kts 105°
2026-04-26 11:49 36.47340 25.57602 7494 ft 288 kts 115°
2026-04-26 11:50 36.46064 25.59540 7047 ft 296 kts 140°
2026-04-26 11:50 36.44251 25.60782 6609 ft 300 kts 154°
2026-04-26 11:50 36.42313 25.61800 6078 ft 305 kts 155°
2026-04-26 11:50 36.40343 25.62820 5609 ft 307 kts 155°
2026-04-26 11:51 36.38368 25.63851 5153 ft 308 kts 155°
2026-04-26 11:51 36.36391 25.64890 4754 ft 307 kts 155°
2026-04-26 11:51 36.34472 25.65908 4453 ft 302 kts 155°
2026-04-26 11:51 36.32552 25.66933 4151 ft 299 kts 155°
2026-04-26 11:52 36.30658 25.67951 3843 ft 295 kts 155°
2026-04-26 11:52 36.28723 25.68709 3547 ft 291 kts 172°
2026-04-26 11:52 36.26737 25.68562 3355 ft 283 kts 195°
2026-04-26 11:52 36.24995 25.67546 3197 ft 273 kts 218°
2026-04-26 11:53 36.23715 25.65866 3051 ft 266 kts 240°
2026-04-26 11:53 36.23068 25.63794 2910 ft 253 kts 263°
2026-04-26 11:53 36.23115 25.61706 2764 ft 242 kts 285°
2026-04-26 11:54 36.24866 25.58506 2525 ft 217 kts 327°
2026-04-26 11:54 36.26191 25.57696 2425 ft 211 kts 338°
2026-04-26 11:54 36.27414 25.56729 2326 ft 210 kts 320°
2026-04-26 11:54 36.28471 25.55487 2226 ft 209 kts 317°
2026-04-26 11:55 36.29498 25.54217 2095 ft 209 kts 316°
2026-04-26 11:55 36.30547 25.52922 1766 ft 211 kts 317°
2026-04-26 11:55 36.31628 25.51777 1703 ft 197 kts 331°
2026-04-26 11:55 36.32838 25.51182 1533 ft 183 kts 342°
2026-04-26 11:56 36.33987 25.50700 1275 ft 168 kts 338°
2026-04-26 11:56 36.35045 25.50192 961 ft 156 kts 340°
2026-04-26 11:56 36.35994 25.49771 822 ft 138 kts 339°
2026-04-26 11:56 36.36866 25.49357 525 ft 131 kts 339°
2026-04-26 11:57 36.37714 25.48957 331 ft 129 kts 339°
2026-04-26 11:57 36.38558 25.48558 163 ft 130 kts 339°
2026-04-26 11:57 36.39393 25.48163 67 ft 119 kts 339°
2026-04-26 11:57 36.39958 25.47897 84 ft 54 kts 339°
2026-04-26 11:58 36.40237 25.47764 89 ft 25 kts 339°
2026-04-26 11:58 36.40318 25.47714 90 ft 8 kts 304°
2026-04-26 11:58 36.40302 25.47644 90 ft 10 kts 248°
2026-04-26 11:58 36.40278 25.47567 89 ft 9 kts 250°
2026-04-26 11:59 36.40263 25.47502 89 ft 6 kts 270°
2026-04-26 11:59 36.40275 25.47449 89 ft 6 kts 265°
2026-04-26 11:59 36.40267 25.47418 90 ft 2 kts 249°
2026-04-26 11:59 36.40265 25.47412 90 ft 0 kts 249°